Date String (YYYY-MM-DD hh:mm:ss) UTC,Instrument flags,absolute air pressure of the measurement (hPa),sample flow rate (lpm),inlet stack bypass flow (lpm),air temperature of the measurement (°C),ambient temperature measured by the external sensor (°C),aerosol sample conditioner tube jacket temperature (°C),OPC LED temperature (°C),internal box temperature (°C),relative humidity of the measurement (%),span deviation,mass concentration of particles derived from Lorenz-Mie calculation of OPC scattering (μg/m³),mass concentration of particles derived from Lorenz-Mie calculation of OPC scattering (μg/m³),mass concentration of particles derived from Lorenz-Mie calculation of OPC scattering (μg/m³)
DateTimeUTC,F1_M11,P_M11,Q1_M11,Q2_M11,T1_M11,T2_M11,T3_M11,T4_M11,T5_M11,U1_M11,ZSPAN_M11,X0_M11,X2_M11,X1_M11
2023-07-11 19:00:00,SystemResetWarning,0830.8,5.02,000.00,028.5,025.0,000.0,036.6,029.9,15.8,0000.0,0013.02,0004.34,0003.50
2023-07-11 19:01:00,SystemResetWarning,0830.8,4.98,000.00,028.4,025.4,000.0,036.7,029.8,15.0,0000.0,0013.70,0004.32,0003.49
2023-07-11 19:02:00,SystemResetWarning,0830.8,4.99,000.00,028.4,025.8,000.0,036.7,029.9,15.3,0000.0,0013.50,0004.28,0003.48
2023-07-11 19:03:00,SystemResetWarning,0830.8,5.01,000.00,028.4,026.2,000.0,036.8,030.0,14.7,0000.0,0013.15,0004.26,0003.48
2023-07-11 19:04:00,SystemResetWarning,0830.8,5.02,000.00,028.5,026.6,000.0,036.8,030.1,14.8,0000.0,0012.62,0004.26,0003.48
2023-07-11 19:05:00,SystemResetWarning,0830.8,5.00,000.00,028.5,027.0,000.0,036.8,030.2,15.0,0000.0,0011.99,0004.28,0003.49
2023-07-11 19:06:00,SystemResetWarning,0830.8,4.99,000.00,028.6,027.3,000.0,036.8,030.3,15.6,0000.0,0011.97,0004.28,0003.49
2023-07-11 19:07:00,SystemResetWarning,0830.8,4.98,000.00,028.6,027.3,000.0,036.8,030.3,15.9,0000.0,0011.89,0004.24,0003.49
2023-07-11 19:08:00,SystemResetWarning,0830.7,5.00,000.00,028.6,025.9,000.0,036.8,030.1,15.3,0000.0,0011.85,0004.24,0003.49
2023-07-11 19:09:00,SystemResetWarning,0830.7,5.01,000.00,028.5,024.9,000.0,036.7,029.9,16.5,0000.0,0011.21,0004.22,0003.48
2023-07-11 19:10:00,SystemResetWarning,0830.7,5.01,000.00,028.5,025.2,000.0,036.7,029.9,15.9,0000.0,0011.19,0004.22,0003.49
2023-07-11 19:11:00,SystemResetWarning,0830.7,5.00,000.00,028.4,025.5,000.0,036.7,029.8,15.7,0000.0,0010.92,0004.22,0003.50
2023-07-11 19:12:00,SystemResetWarning,0830.6,5.00,000.00,028.4,026.0,000.0,036.8,030.0,15.3,0000.0,0010.14,0004.22,0003.50
2023-07-11 19:13:00,SystemResetWarning,0830.6,5.00,000.00,028.5,026.4,000.0,036.8,030.1,15.2,0000.0,0010.29,0004.25,0003.51
2023-07-11 19:14:00,SystemResetWarning,0830.6,5.00,000.00,028.5,026.8,000.0,036.8,030.2,16.1,0000.0,0010.38,0004.31,0003.50
2023-07-11 19:15:00,SystemResetWarning,0830.7,5.00,000.00,028.6,027.1,000.0,036.8,030.2,15.8,0000.0,0010.65,0004.30,0003.50
2023-07-11 19:16:00,SystemResetWarning,0830.7,5.00,000.00,028.6,027.2,000.0,036.8,030.3,15.2,0000.0,0011.10,0004.32,0003.50
2023-07-11 19:17:00,SystemResetWarning,0830.7,4.98,000.00,028.6,025.8,000.0,036.8,030.2,15.7,0000.0,0011.27,0004.34,0003.50
2023-07-11 19:18:00,SystemResetWarning,0830.6,5.02,000.00,028.5,024.9,000.0,036.7,030.0,17.1,0000.0,0011.20,0004.34,0003.49
2023-07-11 19:19:00,SystemResetWarning,0830.6,5.01,000.00,028.5,025.2,000.0,036.7,030.0,15.9,0000.0,0010.82,0004.30,0003.50
2023-07-11 19:20:00,SystemResetWarning,0830.6,4.99,000.00,028.5,025.5,000.0,036.7,029.9,16.1,0000.0,0010.10,0004.31,0003.51
2023-07-11 19:21:00,SystemResetWarning,0830.6,5.00,000.00,028.5,026.0,000.0,036.7,030.0,15.8,0000.0,0010.44,0004.35,0003.52
2023-07-11 19:22:00,SystemResetWarning,0830.6,5.01,000.00,028.5,026.4,000.0,036.8,030.1,17.6,0000.0,0011.54,0004.34,0003.52
2023-07-11 19:23:00,SystemResetWarning,0830.6,5.01,000.00,028.5,026.8,000.0,036.8,030.2,17.9,0000.0,0011.66,0004.34,0003.53
2023-07-11 19:24:00,SystemResetWarning,0830.6,5.00,000.00,028.6,027.1,000.0,036.8,030.3,17.5,0000.0,0012.10,0004.37,0003.54
2023-07-11 19:25:00,SystemResetWarning,0830.7,4.99,000.00,028.6,027.3,000.0,036.8,030.3,15.3,0000.0,0012.68,0004.35,0003.55
2023-07-11 19:26:00,SystemResetWarning,0830.6,4.99,000.00,028.6,026.0,000.0,036.8,030.2,16.2,0000.0,0013.46,0004.36,0003.56
2023-07-11 19:27:00,SystemResetWarning,0830.6,5.00,000.00,028.6,024.9,000.0,036.7,030.0,16.3,0000.0,0014.01,0004.33,0003.55
2023-07-11 19:28:00,SystemResetWarning,0830.6,5.01,000.00,028.5,025.2,000.0,036.7,030.0,16.1,0000.0,0013.42,0004.33,0003.55
2023-07-11 19:29:00,SystemResetWarning,0830.6,5.01,000.00,028.5,025.6,000.0,036.7,029.9,17.7,0000.0,0013.60,0004.34,0003.55
2023-07-11 19:30:00,SystemResetWarning,0830.6,5.00,000.00,028.5,026.0,000.0,036.8,030.0,18.0,0000.0,0014.04,0004.35,0003.55
2023-07-11 19:31:00,SystemResetWarning,0830.6,5.00,000.00,028.5,026.4,000.0,036.8,030.1,16.1,0000.0,0014.04,0004.36,0003.55
2023-07-11 19:32:00,SystemResetWarning,0830.7,5.00,000.00,028.5,026.8,000.0,036.8,030.2,16.6,0000.0,0014.01,0004.33,0003.54
2023-07-11 19:33:00,SystemResetWarning,0830.6,4.99,000.00,028.6,027.1,000.0,036.8,030.3,15.8,0000.0,0013.23,0004.32,0003.54
2023-07-11 19:34:00,SystemResetWarning,0830.6,4.99,000.00,028.6,027.3,000.0,036.9,030.4,15.4,0000.0,0013.54,0004.33,0003.53
2023-07-11 19:35:00,SystemResetWarning,0830.6,5.00,000.00,028.6,026.1,000.0,036.8,030.2,15.4,0000.0,0013.29,0004.30,0003.52
2023-07-11 19:36:00,SystemResetWarning,0830.5,5.00,000.00,028.6,024.8,000.0,036.7,030.0,15.9,0000.0,0012.99,0004.31,0003.53
2023-07-11 19:37:00,SystemResetWarning,0830.7,5.02,000.00,028.5,025.1,000.0,036.7,030.0,14.9,0000.0,0012.06,0004.27,0003.53
2023-07-11 19:38:00,SystemResetWarning,0830.4,5.00,000.00,028.5,025.4,000.0,036.7,029.9,15.4,0000.0,0011.10,0004.29,0003.53
2023-07-11 19:39:00,SystemResetWarning,0830.6,4.99,000.00,028.5,025.9,000.0,036.8,029.9,16.0,0000.0,0010.74,0004.26,0003.53
2023-07-11 19:40:00,SystemResetWarning,0830.7,5.00,000.00,028.5,026.3,000.0,036.8,030.1,14.7,0000.0,0010.54,0004.25,0003.52
2023-07-11 19:41:00,SystemResetWarning,0830.6,5.00,000.00,028.5,026.7,000.0,036.8,030.2,16.4,0000.0,0010.10,0004.24,0003.52
2023-07-11 19:42:00,SystemResetWarning,0830.6,5.01,000.00,028.6,027.1,000.0,036.8,030.3,18.5,0000.0,0010.11,0004.23,0003.53
2023-07-11 19:43:00,SystemResetWarning,0830.5,5.00,000.00,028.6,027.4,000.0,036.9,030.3,18.5,0000.0,0010.34,0004.22,0003.52
2023-07-11 19:44:00,SystemResetWarning,0830.4,4.99,000.00,028.7,027.2,000.0,036.9,030.4,19.4,0000.0,0010.57,0004.27,0003.51
2023-07-11 19:45:00,SystemResetWarning,0830.4,4.99,000.00,028.6,025.5,000.0,036.8,030.2,18.8,0000.0,0010.37,0004.30,0003.52
2023-07-11 19:46:00,SystemResetWarning,0830.4,5.02,000.00,028.6,024.9,000.0,036.7,030.0,18.8,0000.0,0010.27,0004.29,0003.51
2023-07-11 19:47:00,SystemResetWarning,0830.5,4.99,000.00,028.5,025.2,000.0,036.7,030.0,18.8,0000.0,0010.81,0004.25,0003.51
2023-07-11 19:48:00,SystemResetWarning,0830.5,4.99,000.00,028.5,025.6,000.0,036.8,030.0,17.7,0000.0,0011.31,0004.25,0003.49
2023-07-11 19:49:00,SystemResetWarning,0830.5,5.00,000.00,028.5,026.1,000.0,036.8,030.1,15.9,0000.0,0012.53,0004.31,0003.51
2023-07-11 19:50:00,SystemResetWarning,0830.5,5.00,000.00,028.5,026.5,000.0,036.8,030.2,18.1,0000.0,0012.74,0004.36,0003.53
2023-07-11 19:51:00,SystemResetWarning,0830.5,4.99,000.00,028.6,026.9,000.0,036.9,030.2,18.4,0000.0,0013.30,0004.39,0003.56
2023-07-11 19:52:00,SystemResetWarning,0830.7,4.99,000.00,028.6,027.2,000.0,036.9,030.3,18.9,0000.0,0014.36,0004.42,0003.58
2023-07-11 19:53:00,SystemResetWarning,0830.6,5.01,000.00,028.7,027.5,000.0,036.9,030.4,19.7,0000.0,0014.78,0004.48,0003.60
2023-07-11 19:54:00,SystemResetWarning,0830.5,4.99,000.00,028.7,026.6,000.0,036.9,030.3,17.5,0000.0,0014.29,0004.54,0003.64
2023-07-11 19:55:00,SystemResetWarning,0830.5,5.01,000.00,028.6,025.1,000.0,036.8,030.1,16.9,0000.0,0013.60,0004.53,0003.66
2023-07-11 19:56:00,SystemResetWarning,0830.4,5.01,000.00,028.6,025.1,000.0,036.7,030.0,15.3,0000.0,0013.29,0004.51,0003.67
2023-07-11 19:57:00,SystemResetWarning,0830.3,5.00,000.00,028.6,025.4,000.0,036.8,030.0,19.0,0000.0,0013.13,0004.49,0003.67
2023-07-11 19:58:00,SystemResetWarning,0830.3,5.00,000.00,028.5,025.9,000.0,036.8,030.0,16.7,0000.0,0012.15,0004.51,0003.68
2023-07-11 19:59:00,SystemResetWarning,0830.4,5.00,000.00,028.6,026.3,000.0,036.8,030.1,14.9,0000.0,0011.59,0004.58,0003.70
